This demonstration page uses our WeatherBlox Daily Observations layout. Learn more.

Left ArrowRight Arrow

Hourly Observations for December 26, 2015

Temp ( °F °C ) Dew Point ( °F °C ) Humidity (%) Winds ( mph kmh ) Pressure ( in mb ) Visibility ( mi km ) Precip ( " mm )
12:53 am 00:53 Cloudy 47 8.3 37 2.8 69 69 ENE 8 13 30.28 1025 10 16 N/A
1:27 am 01:27 Cloudy 47 8.3 37 2.8 69 69 ENE 10 17 30.27 1025 10 16 N/A
1:53 am 01:53 Cloudy 47 8.3 37 2.8 69 69 ENE 9 15 30.27 1025 10 16 N/A
2:53 am 02:53 Cloudy 47 8.3 38 3.3 71 71 ENE 8 13 30.27 1025 10 16 N/A
3:53 am 03:53 Cloudy 47 8.3 39 3.9 74 74 ENE 13 20 30.27 1025 10 16 N/A
4:53 am 04:53 Cloudy 47 8.3 41 5 80 80 E 13 20 30.26 1025 10 16 N/A
5:10 am 05:10 Cloudy with Light Rain 46 7.8 42 5.6 86 86 E 10 17 30.27 1025 10 16 N/A
5:53 am 05:53 Cloudy 46 7.8 43 6.1 89 89 E 8 13 30.25 1024 10 16 N/A
6:53 am 06:53 Cloudy 47 8.3 42 5.6 83 83 E 8 13 30.24 1024 10 16 N/A
7:53 am 07:53 Cloudy 47 8.3 43 6.1 86 86 E 8 13 30.24 1024 10 16 N/A
8:53 am 08:53 Cloudy 47 8.3 43 6.1 86 86 E 9 15 30.24 1024 10 16 N/A
9:14 am 09:14 Cloudy 47 8.3 44 6.7 90 90 E 8 13 30.24 1024 10 16 N/A
9:53 am 09:53 Cloudy 48 8.9 45 7.2 89 89 E 6 9 30.23 1024 9 14 N/A
10:53 am 10:53 Cloudy 49 9.4 46 7.8 90 90 ESE 5 7 30.24 1024 9 14 N/A
11:29 am 11:29 Cloudy with Mist and Fog 49 9.4 47 8.3 93 93 E 5 7 30.21 1023 2 3 N/A
11:36 am 11:36 Cloudy with Mist and Fog 49 9.4 47 8.3 93 93 E 6 9 30.21 1023 2 2 N/A
11:53 am 11:53 Cloudy with Light Rain 49 9.4 47 8.3 93 93 E 6 9 30.20 1023 2 3 N/A
12:04 pm 12:04 Cloudy with Mist and Fog 49 9.4 48 8.9 97 97 E 6 9 30.18 1022 2 2 N/A
12:15 pm 12:15 Cloudy with Mist and Fog 49 9.4 48 8.9 97 97 E 3 6 30.18 1022 2 3 N/A
12:21 pm 12:21 Cloudy with Light Rain 49 9.4 48 8.9 97 97 E 3 6 30.18 1022 2 3 N/A
12:51 pm 12:51 Cloudy with Light Rain 50 10 48 9 94 94 ESE 6 9 30.15 1021 3 5 0.04 1.02
12:53 pm 12:53 Cloudy with Light Rain 50 10 49 9.4 96 96 ESE 5 7 30.15 1021 3 5 0.04 1.02
1:04 pm 13:04 Cloudy with Light Rain 50 10 49 9.4 96 96 VRB 3 6 30.15 1021 3 5 0.01 0.25
1:24 pm 13:24 Cloudy with Light Rain 51 10.6 49 9.4 92 92 N N/A 30.15 1021 5 8 0.02 0.51
1:53 pm 13:53 Cloudy with Light Rain 51 10.6 50 10 96 96 E 6 9 30.14 1021 4 6 0.02 0.51
2:00 pm 14:00 Cloudy with Light Rain 51 10.6 50 10 96 96 ESE 3 6 30.12 1020 3 5 0.01 0.25
2:53 pm 14:53 Cloudy with Mist and Fog 54 12.2 52 11.1 93 93 ESE 5 7 30.12 1020 6 10 0.03 0.76
3:01 pm 15:01 Cloudy with Light Rain 54 12.2 53 11.7 97 97 VRB 3 6 30.12 1020 5 8 N/A
3:15 pm 15:15 Cloudy with Light Rain 54 12.2 53 11.7 97 97 E 5 7 30.12 1020 4 6 0.01 0.25
3:25 pm 15:25 Cloudy with Mist and Fog 54 12.2 53 11.7 97 97 E 6 9 30.09 1019 5 8 0.01 0.25
3:35 pm 15:35 Cloudy with Mist and Fog 54 12.2 53 11.7 97 97 N N/A 30.09 1019 5 8 0.01 0.25
3:50 pm 15:50 Cloudy with Light Rain 54 12 54 12 100 100 ENE 5 7 30.09 1019 3 5 0.02 0.51
3:53 pm 15:53 Cloudy with Light Rain 54 12.2 53 11.7 97 97 E 5 7 30.09 1019 3 5 0.03 0.76
4:03 pm 16:03 Cloudy with Heavy Rain 54 12.2 53 11.7 97 97 N N/A 30.09 1019 2 3 0.03 0.76
4:11 pm 16:11 Cloudy with Rain 55 12.8 54 12.2 96 96 NNE 3 6 30.09 1019 2 2 0.06 1.52
4:20 pm 16:20 Cloudy with Light Rain 55 12.8 54 12.2 96 96 N N/A 30.09 1019 2 3 0.09 2.29
4:30 pm 16:30 Cloudy with Mist and Fog 55 12.8 54 12.2 96 96 N N/A 30.09 1019 4 6 0.09 2.29
4:53 pm 16:53 Cloudy with Light Rain 55 12.8 54 12.2 96 96 E 3 6 30.08 1019 4 6 0.09 2.29
5:53 pm 17:53 Cloudy with Light Rain 56 13.3 55 12.8 97 97 ESE 5 7 30.08 1019 5 8 0.07 1.78
6:11 pm 18:11 Cloudy with Light Rain 56 13.3 55 12.8 97 97 E 6 9 30.09 1019 6 10 N/A
6:53 pm 18:53 Cloudy 60 15.6 59 15 96 96 VRB 3 6 30.06 1018 10 16 N/A
7:04 pm 19:04 Cloudy with Heavy Rain 60 15.6 59 15 96 96 VRB 3 6 30.06 1018 3 5 0.04 1.02
7:38 pm 19:38 Cloudy with Light Rain 60 15.6 59 15 96 96 N N/A 30.06 1018 8 13 0.05 1.27
7:53 pm 19:53 Cloudy 60 15.6 59 15 96 96 N N/A 30.06 1018 10 16 0.05 1.27
8:15 pm 20:15 Cloudy 60 15.6 59 15 96 96 N N/A 30.06 1018 9 14 N/A
8:53 pm 20:53 Cloudy 60 15.6 59 15 96 96 E 3 6 30.04 1017 9 14 N/A
9:53 pm 21:53 Cloudy 59 15 58 14.4 96 96 NE 3 6 30.03 1017 8 13 N/A
10:43 pm 22:43 Cloudy with Mist and Fog 58 14.4 57 13.9 97 97 N N/A 30.00 1016 3 4 N/A
10:46 pm 22:46 Cloudy with Mist and Fog 58 14.4 57 13.9 97 97 N N/A 30.00 1016 2 2 N/A
10:53 pm 22:53 Cloudy with Mist and Fog 57 13.9 57 13.9 100 100 N N/A 30.01 1016 1 2 N/A
11:01 pm 23:01 Cloudy with Mist and Fog 58 14.4 58 14.4 100 100 N N/A 30.00 1016 1 2 N/A
11:16 pm 23:16 Cloudy with Fog 58 14.4 57 13.9 97 97 SE 3 6 30.00 1016 1 1 N/A
11:28 pm 23:28 Cloudy with Mist and Fog 57 13.9 57 13.9 100 100 N N/A 30.00 1016 1 2 N/A
11:53 pm 23:53 Cloudy with Mist and Fog 58 14.4 58 14.4 100 100 E 3 6 29.99 1016 2 2 N/A
11:55 pm 23:55 Cloudy with Mist and Fog 58 14.4 58 14.4 100 100 E 3 6 30.00 1016 2 3 N/A

Powered by AerisWeather